TimeEST,TemperatureF,Dew PointF,Humidity,Sea Level PressureIn,VisibilityMPH,Wind Direction,Wind SpeedMPH,Gust SpeedMPH,PrecipitationIn,Events,Conditions,WindDirDegrees,DateUTC
12:54 AM,37.0,30.9,79,30.38,10.0,South,3.5,-,N/A,,Clear,180,2012-11-19 05:54:00
1:54 AM,30.0,26.1,85,30.37,7.0,Calm,Calm,-,N/A,,Clear,0,2012-11-19 06:54:00
2:54 AM,28.9,27.0,92,30.38,9.0,Calm,Calm,-,N/A,,Clear,0,2012-11-19 07:54:00
3:54 AM,27.0,25.0,92,30.37,7.0,Calm,Calm,-,N/A,,Clear,0,2012-11-19 08:54:00
4:54 AM,28.0,25.0,88,30.36,7.0,Calm,Calm,-,N/A,,Clear,0,2012-11-19 09:54:00
5:54 AM,26.1,24.1,92,30.36,6.0,Calm,Calm,-,N/A,,Clear,0,2012-11-19 10:54:00
6:54 AM,26.1,23.0,88,30.35,7.0,Calm,Calm,-,N/A,,Clear,0,2012-11-19 11:54:00
7:54 AM,24.1,23.0,96,30.35,5.0,Calm,Calm,-,N/A,,Clear,0,2012-11-19 12:54:00
8:54 AM,30.0,28.0,92,30.35,7.0,Calm,Calm,-,N/A,,Clear,0,2012-11-19 13:54:00
9:54 AM,37.0,34.0,89,30.33,5.0,Calm,Calm,-,N/A,,Clear,0,2012-11-19 14:54:00
10:54 AM,44.1,36.0,73,30.32,10.0,SE,4.6,-,N/A,,Clear,140,2012-11-19 15:54:00
11:54 AM,50.0,34.0,54,30.28,10.0,SE,6.9,-,N/A,,Clear,140,2012-11-19 16:54:00
12:54 PM,51.1,34.0,52,30.25,10.0,SE,5.8,-,N/A,,Clear,130,2012-11-19 17:54:00
1:54 PM,52.0,34.0,50,30.25,10.0,Calm,Calm,-,N/A,,Clear,0,2012-11-19 18:54:00
2:54 PM,52.0,35.1,53,30.22,10.0,SE,4.6,-,N/A,,Partly Cloudy,130,2012-11-19 19:54:00
3:54 PM,52.0,35.1,53,30.22,10.0,Calm,Calm,-,N/A,,Mostly Cloudy,0,2012-11-19 20:54:00
4:54 PM,46.9,36.0,66,30.21,10.0,SE,3.5,-,0.00,Rain,Light Rain,140,2012-11-19 21:54:00
5:54 PM,48.0,35.1,61,30.20,10.0,Calm,Calm,-,0.00,,Overcast,0,2012-11-19 22:54:00
6:54 PM,46.9,35.1,63,30.19,10.0,Calm,Calm,-,N/A,,Overcast,0,2012-11-19 23:54:00
7:54 PM,46.0,34.0,63,30.19,10.0,Calm,Calm,-,N/A,,Overcast,0,2012-11-20 00:54:00
8:54 PM,44.1,35.1,71,30.18,10.0,Calm,Calm,-,N/A,,Overcast,0,2012-11-20 01:54:00
10:54 PM,42.1,33.1,70,30.15,10.0,Calm,Calm,-,N/A,,Overcast,0,2012-11-20 03:54:00
11:54 PM,43.0,34.0,71,30.14,10.0,ESE,3.5,-,N/A,,Overcast,110,2012-11-20 04:54:00